Location: ???????
(55.4362°N, 38.1183°E)
Time: 18:37:57
(UTC+00:00)

Cosmos 1825 Rocket - Visible Passes

Search period start: 23 October 2021 00:00
Search period end: 02 November 2021 00:00
Orbit: 603 x 631 km, 82.5° (Epoch: 23 October)

Date Brightness Start Highest point End Pass type
(mag) Time Alt. Az. Time Alt. Az. Time Alt. Az.
23 Oct 3.5 16:13:29 10° N 16:17:48 59° ENE 16:19:17 37° SE visible
23 Oct 5.9 17:52:02 10° NW 17:55:14 20° W 17:56:27 18° WSW visible
24 Oct 5.1 14:53:18 10° NNE 14:56:07 17° ENE 14:58:55 10° E visible
24 Oct 3.5 16:30:14 10° NNW 16:34:35 85° W 16:36:36 32° S visible
24 Oct 6.5 18:09:42 10° NW 18:11:43 13° W 18:13:42 10° WSW visible
25 Oct 4.6 15:09:36 10° N 15:13:11 24° ENE 15:16:44 10° ESE visible
25 Oct 4.3 16:47:05 10° NNW 16:51:19 52° W 16:54:06 20° SSW visible
26 Oct 4.0 15:26:06 10° N 15:30:10 37° ENE 15:34:11 10° SE visible
26 Oct 5.2 17:04:05 10° NNW 17:07:57 32° W 17:11:47 10° SSW visible
27 Oct 3.5 15:42:44 10° N 15:47:03 59° ENE 15:51:19 10° SSE visible
27 Oct 6.0 17:21:17 10° NW 17:24:30 21° W 17:27:42 10° SW visible
28 Oct 3.5 15:59:30 10° NNW 16:03:51 85° W 16:08:10 10° S visible
28 Oct 6.6 17:38:57 10° NW 17:40:58 13° W 17:42:59 10° WSW visible
29 Oct 4.6 14:38:52 10° N 14:42:26 24° ENE 14:45:59 10° ESE visible
29 Oct 4.3 16:16:21 10° NNW 16:20:34 52° W 16:24:46 10° S visible
30 Oct 4.0 14:55:22 10° N 14:59:25 37° ENE 15:03:26 10° SE visible
30 Oct 5.3 16:33:20 10° NNW 16:37:12 32° W 16:41:03 10° SSW visible
31 Oct 6.6 03:35:45 10° ESE 03:38:24 16° E 03:41:03 10° NE visible
31 Oct 3.5 15:12:00 10° N 15:16:18 59° ENE 15:20:34 10° SSE visible
31 Oct 6.1 16:50:32 10° NW 16:53:45 21° W 16:56:58 10° SW visible
01 Nov 6.2 03:51:22 10° SE 03:54:54 25° E 03:58:27 10° NNE visible
01 Nov 3.5 15:28:45 10° NNW 15:33:06 86° WSW 15:37:26 10° S visible
01 Nov 6.7 17:08:12 10° NW 17:10:14 13° W 17:12:15 10° WSW visible
